Preview of NWS' New Version of Forecast
This preview is not operational and should not be used for support decisions.

Regional Weather Roundup (RWR)

Issued by National Weather Service (NWS)

                            
000
ASUS43 KLSX 200307
RWRMO 

WEATHER SUMMARY FOR MISSOURI
NATIONAL WEATHER SERVICE SPRINGFIELD MO
1000 PM CDT WED JUN 19 2019

NOTE: "FAIR" INDICATES FEW OR NO CLOUDS BELOW 12,000 FEET WITH NO
       SIGNIFICANT WEATHER AND/OR OBSTRUCTIONS TO VISIBILITY.
       CURRENT SKY AND/OR WEATHER CONDITIONS ARE NOT AVAILABLE FOR
       CHILLICOTHE AND FARMINGTON.

MOZ001>031-035>038-043-044-053-054-200400-
...NORTHERN AND WESTERN MISSOURI...
  
CITY           SKY/WX    TMP DP  RH WIND       PRES   REMARKS
KANSAS CTY INT PTCLDY    67  62  84 N6        29.73R                  
KANSAS C DTWN  CLEAR     71  62  73 N5        29.71R                  
LEE'S SUMMIT   CLEAR     68  61  78 N7        29.73R                  
ST JOSEPH      CLEAR     66  63  90 CALM      29.72R                  
CHILLICOTHE      N/A     65  64  97 N3        29.72S                  
KIRKSVILLE     CLOUDY    65  63  93 N7        29.71R                  
     
$$
MOZ066>068-077>081-088>096-101>105-200400-
...SOUTHWEST MISSOURI...
  
CITY           SKY/WX    TMP DP  RH WIND       PRES   REMARKS
SPRINGFIELD    PTCLDY    72  64  76 W3        29.73R                  
JOPLIN         CLEAR     70  66  87 CALM      29.73S                  
BRANSON        CLOUDY    70  66  88 CALM      29.76R                  
               
$$
MOZ032>034-039>042-045>050-055>058-069>072-200400-
...CENTRAL MISSOURI...  
  
CITY           SKY/WX    TMP DP  RH WIND       PRES   REMARKS
COLUMBIA       MOCLDY    70  64  81 NW8       29.68R                  
ROLLA          PTCLDY    69  66  90 W7        29.69S                  
SEDALIA        PTCLDY    64  64 100 NW6       29.72R                  
WHITEMAN AFB   PTCLDY    67  65  93 N6        29.67R                  
WARRENSBURG    CLEAR     66  61  82 NW3       29.72R                  
OSAGE BEACH    MOCLDY    68  67  96 CALM      29.71R                  
               
$$
MOZ051-052-059>065-200400-
...EAST CENTRAL MISSOURI...
  
CITY           SKY/WX    TMP DP  RH WIND       PRES   REMARKS
ST LOUIS INTL  MOCLDY    76  66  71 W13       29.63R                  
SPIRIT OF STL  PTCLDY    75  68  78 W8        29.63R                  
ST CHARLES       N/A    N/A N/A N/A MISG      29.61R                  
                   
$$
MOZ072>076-082>087-097>100-106>115-200400-
...SOUTH CENTRAL AND SOUTHEAST MISSOURI...
  
CITY           SKY/WX    TMP DP  RH WIND       PRES   REMARKS
CAPE GIRARDEAU FAIR      68  63  84 SE3       29.65F                  
FARMINGTON     PTCLDY    71  68  90 CALM      29.69R                  
POPLAR BLUFF   FAIR      70  70 100 E3        29.66R                  
WEST PLAINS    CLOUDY    73  68  84 CALM      29.73R                  
                                       
$$